• In Latvia
  • List of Countries
  • For 7 days
  • Water Temperature
  • Satellite Maps
  • Weather Map
  • Weather Widgets
  • user-avatar
    Login

    Hourly Weather Kovalevka

    Today, 24 September, Monday

    Time Temperature Precipitation Wind Pressure Humidity
    00:00 +15°C° 0 mm 4 mps 755 mmHg 70%
    01:00 +14°C° 0 mm 4 mps 755 mmHg 71%
    02:00 +13°C° 0 mm 3 mps 755 mmHg 73%
    03:00 +13°C° 0 mm 2 mps 755 mmHg 74%
    04:00 +12°C° 0 mm 2 mps 756 mmHg 75%
    05:00 +12°C° 0 mm 1 mps 756 mmHg 75%
    06:00 +11°C° 0 mm 1 mps 756 mmHg 76%
    07:00 +13°C° 0 mm 1 mps 756 mmHg 69%
    08:00 +14°C° 0 mm 1 mps 756 mmHg 61%
    09:00 +15°C° 0 mm 1 mps 756 mmHg 54%
    10:00 +17°C° 0 mm 2 mps 756 mmHg 47%
    11:00 +19°C° 0 mm 2 mps 755 mmHg 40%
    12:00 +20°C° 0 mm 3 mps 755 mmHg 33%
    13:00 +21°C° 0 mm 3 mps 755 mmHg 31%
    14:00 +22°C° 0 mm 3 mps 754 mmHg 29%
    15:00 +23°C° 0 mm 4 mps 753 mmHg 27%
    16:00 +24°C° 0 mm 3 mps 753 mmHg 33%
    17:00 +22°C° 0 mm 3 mps 752 mmHg 39%
    18:00 +21°C° 0 mm 3 mps 752 mmHg 45%
    19:00 +21°C° 0 mm 3 mps 751 mmHg 52%
    20:00 +21°C° 0 mm 3 mps 751 mmHg 58%
    21:00 +20°C° 0 mm 3 mps 751 mmHg 64%
    22:00 +20°C° 0 mm 4 mps 750 mmHg 68%
    23:00 +20°C° 0 mm 4 mps 750 mmHg 71%

    Tomorrow, 25 September, Tuesday

    Time Temperature Precipitation Wind Pressure Humidity
    00:00 +20°C° 0 mm 4 mps 749 mmHg 75%
    01:00 +20°C° 0 mm 4 mps 749 mmHg 77%
    02:00 +20°C° 0 mm 5 mps 749 mmHg 79%
    03:00 +20°C° 0 mm 5 mps 749 mmHg 81%
    04:00 +19°C° 0.1 mm 5 mps 749 mmHg 82%
    05:00 +19°C° 0.1 mm 5 mps 749 mmHg 83%
    06:00 +19°C° 0.1 mm 5 mps 749 mmHg 84%
    07:00 +17°C° 0.4 mm 5 mps 749 mmHg 82%
    08:00 +16°C° 0.4 mm 6 mps 750 mmHg 79%
    09:00 +14°C° 0.4 mm 6 mps 750 mmHg 77%
    10:00 +14°C° 0.7 mm 6 mps 751 mmHg 75%
    11:00 +14°C° 0.7 mm 5 mps 752 mmHg 74%
    12:00 +13°C° 0.7 mm 5 mps 752 mmHg 73%
    13:00 +14°C° 0.1 mm 5 mps 753 mmHg 69%
    14:00 +14°C° 0.1 mm 4 mps 753 mmHg 65%
    15:00 +14°C° 0.1 mm 4 mps 753 mmHg 61%
    16:00 +14°C° 0 mm 4 mps 754 mmHg 60%
    17:00 +14°C° 0 mm 4 mps 754 mmHg 60%
    18:00 +15°C° 0 mm 4 mps 754 mmHg 59%
    19:00 +14°C° 0 mm 4 mps 755 mmHg 60%
    20:00 +14°C° 0 mm 4 mps 755 mmHg 60%
    21:00 +13°C° 0 mm 4 mps 756 mmHg 61%
    22:00 +12°C° 0 mm 3 mps 756 mmHg 62%
    23:00 +12°C° 0 mm 3 mps 756 mmHg 64%

    Day after tomorrow, 26 September, Wednesday

    Time Temperature Precipitation Wind Pressure Humidity
    00:00 +11°C° 0 mm 3 mps 756 mmHg 65%
    01:00 +11°C° 0 mm 3 mps 757 mmHg 68%
    02:00 +10°C° 0 mm 3 mps 757 mmHg 70%
    03:00 +10°C° 0 mm 3 mps 757 mmHg 72%
    04:00 +9°C° 0 mm 3 mps 758 mmHg 75%
    05:00 +9°C° 0 mm 3 mps 758 mmHg 78%
    06:00 +8°C° 0 mm 3 mps 759 mmHg 80%
    07:00 +10°C° 0 mm 3 mps 759 mmHg 74%
    08:00 +11°C° 0 mm 3 mps 760 mmHg 68%
    09:00 +12°C° 0 mm 3 mps 760 mmHg 62%
    10:00 +13°C° 0 mm 3 mps 761 mmHg 56%
    11:00 +14°C° 0 mm 3 mps 761 mmHg 50%
    12:00 +16°C° 0 mm 3 mps 761 mmHg 44%
    13:00 +16°C° 0 mm 3 mps 761 mmHg 42%
    14:00 +17°C° 0 mm 3 mps 761 mmHg 40%
    15:00 +17°C° 0 mm 3 mps 761 mmHg 37%
    16:00 +16°C° 0 mm 3 mps 761 mmHg 37%
    17:00 +16°C° 0 mm 2 mps 761 mmHg 37%
    18:00 +16°C° 0 mm 2 mps 762 mmHg 37%
    19:00 +15°C° 0 mm 2 mps 762 mmHg 38%
    20:00 +15°C° 0 mm 2 mps 762 mmHg 39%
    21:00 +14°C° 0 mm 2 mps 762 mmHg 40%
    22:00 +14°C° 0 mm 2 mps 762 mmHg 42%
    23:00 +13°C° 0 mm 2 mps 762 mmHg 45%

    27 September, Thursday

    Time Temperature Precipitation Wind Pressure Humidity
    00:00 +12°C° 0 mm 2 mps 762 mmHg 48%
    01:00 +10°C° 0 mm 2 mps 763 mmHg 50%
    02:00 +10°C° 0 mm 2 mps 763 mmHg 52%
    03:00 +9°C° 0 mm 2 mps 763 mmHg 55%
    04:00 +9°C° 0 mm 2 mps 763 mmHg 56%
    05:00 +8°C° 0 mm 2 mps 763 mmHg 58%
    06:00 +9°C° 0 mm 1 mps 763 mmHg 60%
    07:00 +10°C° 0 mm 1 mps 763 mmHg 55%
    08:00 +11°C° 0 mm 1 mps 763 mmHg 51%
    09:00 +13°C° 0 mm 1 mps 763 mmHg 46%
    10:00 +14°C° 0 mm 2 mps 762 mmHg 42%
    11:00 +14°C° 0 mm 4 mps 762 mmHg 37%
    12:00 +15°C° 0 mm 5 mps 762 mmHg 33%
    13:00 +15°C° 0 mm 5 mps 761 mmHg 32%
    14:00 +16°C° 0 mm 5 mps 761 mmHg 31%
    15:00 +16°C° 0 mm 6 mps 760 mmHg 31%
    16:00 +15°C° 0 mm 5 mps 760 mmHg 32%
    17:00 +14°C° 0 mm 5 mps 760 mmHg 34%
    18:00 +13°C° 0 mm 5 mps 760 mmHg 36%
    19:00 +13°C° 0 mm 4 mps 760 mmHg 38%
    20:00 +12°C° 0 mm 4 mps 760 mmHg 41%
    21:00 +12°C° 0 mm 4 mps 760 mmHg 43%
    22:00 +12°C° 0 mm 4 mps 760 mmHg 43%
    23:00 +12°C° 0 mm 4 mps 759 mmHg 44%

    28 September, Friday

    Time Temperature Precipitation Wind Pressure Humidity
    00:00 +11°C° 0 mm 4 mps 759 mmHg 44%
    01:00 +11°C° 0 mm 4 mps 759 mmHg 45%
    02:00 +11°C° 0 mm 4 mps 758 mmHg 46%
    03:00 +10°C° 0 mm 5 mps 758 mmHg 47%
    04:00 +11°C° 0 mm 4 mps 758 mmHg 48%
    05:00 +11°C° 0 mm 4 mps 758 mmHg 50%
    06:00 +11°C° 0 mm 4 mps 758 mmHg 51%
    07:00 +12°C° 0 mm 4 mps 758 mmHg 50%
    08:00 +13°C° 0 mm 4 mps 758 mmHg 49%
    09:00 +15°C° 0 mm 4 mps 758 mmHg 48%
    10:00 +17°C° 0 mm 4 mps 758 mmHg 47%
    11:00 +19°C° 0 mm 4 mps 758 mmHg 46%
    12:00 +20°C° 0 mm 4 mps 758 mmHg 45%
    13:00 +21°C° 0 mm 4 mps 758 mmHg 44%
    14:00 +21°C° 0 mm 4 mps 757 mmHg 44%
    15:00 +22°C° 0 mm 4 mps 757 mmHg 44%
    16:00 +21°C° 0 mm 4 mps 757 mmHg 47%
    17:00 +20°C° 0 mm 3 mps 757 mmHg 51%
    18:00 +19°C° 0 mm 3 mps 756 mmHg 54%
    19:00 +18°C° 0 mm 3 mps 756 mmHg 58%
    20:00 +17°C° 0 mm 3 mps 756 mmHg 61%
    21:00 +16°C° 0 mm 3 mps 757 mmHg 65%
    22:00 +16°C° 0 mm 2 mps 756 mmHg 68%
    23:00 +15°C° 0 mm 2 mps 756 mmHg 71%

    29 September, Saturday

    Time Temperature Precipitation Wind Pressure Humidity
    00:00 +15°C° 0 mm 2 mps 756 mmHg 74%
    01:00 +14°C° 0 mm 2 mps 755 mmHg 76%
    02:00 +14°C° 0 mm 2 mps 755 mmHg 78%
    03:00 +14°C° 0 mm 2 mps 755 mmHg 80%
    04:00 +14°C° 0 mm 2 mps 755 mmHg 81%
    05:00 +13°C° 0 mm 2 mps 755 mmHg 83%
    06:00 +13°C° 0 mm 2 mps 755 mmHg 84%
    07:00 +15°C° 0 mm 2 mps 755 mmHg 76%
    08:00 +16°C° 0 mm 2 mps 755 mmHg 69%
    09:00 +18°C° 0 mm 2 mps 755 mmHg 61%
    10:00 +19°C° 0 mm 2 mps 754 mmHg 55%
    11:00 +21°C° 0 mm 2 mps 754 mmHg 49%
    12:00 +23°C° 0 mm 2 mps 754 mmHg 43%
    13:00 +24°C° 0 mm 2 mps 753 mmHg 41%
    14:00 +24°C° 0 mm 2 mps 753 mmHg 39%
    15:00 +25°C° 0 mm 2 mps 753 mmHg 37%
    16:00 +24°C° 0 mm 2 mps 753 mmHg 40%
    17:00 +23°C° 0 mm 2 mps 752 mmHg 42%
    18:00 +21°C° 0 mm 2 mps 752 mmHg 45%
    19:00 +20°C° 0 mm 2 mps 752 mmHg 47%
    20:00 +20°C° 0 mm 2 mps 753 mmHg 49%
    21:00 +19°C° 0 mm 2 mps 753 mmHg 51%
    22:00 +19°C° 0 mm 2 mps 753 mmHg 53%
    23:00 +18°C° 0 mm 2 mps 753 mmHg 54%
    Show more